User: anonymous   Login
Location: Unspecified
(0.0000°N, 0.0000°E)
Time: 20:55:04
(UTC+00:00)
Language:

DSCS III B-4 - Orbit

View from above orbital plane
View from above orbital plane
View from above satellite
View from above satellite

Ground track
Ground track

The orbit data is extracted from the following two-line orbital elements,

1 16116U 85092B   18125.97886534 0.00000000  00000-0  00000-0 0    09
2 16116  15.3280  10.7370 0004657 335.7195  24.2706  0.98993188    05
Epoch (UTC): 05 May 2018 23:29:33
Eccentricity: 0.0004657
inclination: 15.3280°
perigee height: 36129 km
apogee height: 36168 km
right ascension of ascending node: 10.7370°
argument of perigee: 335.7195°
revolutions per day: 0.98993188
mean anomaly at epoch: 24.2706°
orbit number at epoch: 0

The dashed part of the orbit path shows where the satellite is in the earth's shadow,  

DLR